When you browse on this site, cookies collect data to enhance your experience and personalize the content and advertising you see.
Visit our Privacy Policy to learn more. By continuing to use the site, you agree to this use of cookies and data.
  • în România
  • Lista ţărilor
  • Pe 7 zile
  • Temperatura apei
  • Meteo pe hartă
  • Widget-uri
  • user-avatar
    Intrare

    Meteo pe oră la Hajfong

    Astăzi, 28 Ianuarie, Marţi

    Timp Temperatura Precipitaţii Vânt Presiune Umiditate
    00:00 +16°C° 0 mm 2 m/s 762 mmHg 72%
    01:00 +16°C° 0 mm 2 m/s 762 mmHg 73%
    02:00 +15°C° 0 mm 2 m/s 762 mmHg 74%
    03:00 +15°C° 0 mm 2 m/s 762 mmHg 75%
    04:00 +15°C° 0 mm 2 m/s 761 mmHg 75%
    05:00 +15°C° 0 mm 2 m/s 762 mmHg 75%
    06:00 +15°C° 0 mm 2 m/s 762 mmHg 74%
    07:00 +15°C° 0 mm 2 m/s 763 mmHg 69%
    08:00 +16°C° 0 mm 2 m/s 764 mmHg 66%
    09:00 +16°C° 0 mm 2 m/s 764 mmHg 63%
    10:00 +18°C° 0 mm 1 m/s 764 mmHg 60%
    11:00 +19°C° 0 mm 1 m/s 763 mmHg 58%
    12:00 +20°C° 0 mm 1 m/s 763 mmHg 56%
    13:00 +19°C° 0 mm 2 m/s 762 mmHg 54%
    14:00 +19°C° 0 mm 2 m/s 762 mmHg 55%
    15:00 +19°C° 0 mm 2 m/s 762 mmHg 56%
    16:00 +19°C° 0 mm 3 m/s 762 mmHg 58%
    17:00 +18°C° 0 mm 3 m/s 762 mmHg 61%
    18:00 +18°C° 0 mm 3 m/s 762 mmHg 64%
    19:00 +17°C° 0 mm 2 m/s 763 mmHg 67%
    20:00 +17°C° 0 mm 2 m/s 764 mmHg 67%
    21:00 +18°C° 0 mm 1 m/s 764 mmHg 67%
    22:00 +18°C° 0 mm 1 m/s 765 mmHg 67%
    23:00 +17°C° 0 mm 2 m/s 765 mmHg 68%

    Mâine, 29 Ianuarie, Miercuri

    Timp Temperatura Precipitaţii Vânt Presiune Umiditate
    00:00 +17°C° 0 mm 2 m/s 765 mmHg 68%
    01:00 +17°C° 0 mm 2 m/s 765 mmHg 69%
    02:00 +16°C° 0 mm 2 m/s 764 mmHg 68%
    03:00 +16°C° 0 mm 2 m/s 764 mmHg 67%
    04:00 +15°C° 0 mm 2 m/s 764 mmHg 66%
    05:00 +15°C° 0 mm 2 m/s 765 mmHg 65%
    06:00 +15°C° 0 mm 2 m/s 765 mmHg 64%
    07:00 +15°C° 0 mm 2 m/s 766 mmHg 63%
    08:00 +15°C° 0 mm 2 m/s 766 mmHg 60%
    09:00 +16°C° 0 mm 1 m/s 766 mmHg 57%
    10:00 +16°C° 0 mm 1 m/s 767 mmHg 54%
    11:00 +18°C° 0 mm 1 m/s 766 mmHg 54%
    12:00 +18°C° 0 mm 1 m/s 766 mmHg 53%
    13:00 +18°C° 0 mm 1 m/s 765 mmHg 53%
    14:00 +19°C° 0 mm 1 m/s 765 mmHg 52%
    15:00 +19°C° 0 mm 1 m/s 764 mmHg 52%
    16:00 +20°C° 0 mm 1 m/s 764 mmHg 51%
    17:00 +19°C° 0 mm 1 m/s 764 mmHg 55%
    18:00 +18°C° 0 mm 1 m/s 765 mmHg 59%
    19:00 +16°C° 0 mm 1 m/s 765 mmHg 62%
    20:00 +16°C° 0 mm 1 m/s 765 mmHg 64%
    21:00 +16°C° 0 mm 1 m/s 766 mmHg 65%
    22:00 +15°C° 0 mm 1 m/s 766 mmHg 66%
    23:00 +15°C° 0 mm 1 m/s 766 mmHg 66%

    Poimâine, 30 Ianuarie, Joi

    Timp Temperatura Precipitaţii Vânt Presiune Umiditate
    00:00 +15°C° 0 mm 1 m/s 765 mmHg 67%
    01:00 +15°C° 0 mm 1 m/s 765 mmHg 67%
    02:00 +14°C° 0 mm 1 m/s 765 mmHg 67%
    03:00 +14°C° 0 mm 1 m/s 765 mmHg 68%
    04:00 +14°C° 0 mm 1 m/s 765 mmHg 68%
    05:00 +14°C° 0 mm 1 m/s 765 mmHg 69%
    06:00 +14°C° 0 mm 1 m/s 766 mmHg 69%
    07:00 +14°C° 0 mm 1 m/s 766 mmHg 70%
    08:00 +15°C° 0 mm 1 m/s 766 mmHg 64%
    09:00 +18°C° 0 mm 1 m/s 767 mmHg 58%
    10:00 +18°C° 0 mm 0 m/s 767 mmHg 52%
    11:00 +20°C° 0 mm 1 m/s 766 mmHg 50%
    12:00 +21°C° 0 mm 1 m/s 766 mmHg 48%
    13:00 +21°C° 0 mm 2 m/s 765 mmHg 46%
    14:00 +20°C° 0 mm 2 m/s 764 mmHg 48%
    15:00 +20°C° 0 mm 3 m/s 764 mmHg 49%
    16:00 +19°C° 0 mm 4 m/s 763 mmHg 50%
    17:00 +19°C° 0 mm 4 m/s 764 mmHg 53%
    18:00 +18°C° 0 mm 3 m/s 764 mmHg 55%
    19:00 +18°C° 0 mm 3 m/s 764 mmHg 57%
    20:00 +18°C° 0 mm 3 m/s 765 mmHg 58%
    21:00 +18°C° 0 mm 3 m/s 765 mmHg 58%
    22:00 +17°C° 0 mm 2 m/s 765 mmHg 58%
    23:00 +17°C° 0 mm 2 m/s 765 mmHg 60%

    31 Ianuarie, Vineri

    Timp Temperatura Precipitaţii Vânt Presiune Umiditate
    00:00 +17°C° 0 mm 2 m/s 765 mmHg 61%
    01:00 +17°C° 0 mm 2 m/s 764 mmHg 63%
    02:00 +17°C° 0 mm 2 m/s 764 mmHg 64%
    03:00 +16°C° 0 mm 2 m/s 764 mmHg 65%
    04:00 +16°C° 0 mm 2 m/s 763 mmHg 66%
    05:00 +16°C° 0 mm 2 m/s 764 mmHg 66%
    06:00 +16°C° 0 mm 2 m/s 764 mmHg 66%
    07:00 +16°C° 0 mm 2 m/s 765 mmHg 67%
    08:00 +17°C° 0 mm 3 m/s 765 mmHg 62%
    09:00 +18°C° 0 mm 3 m/s 765 mmHg 58%
    10:00 +20°C° 0 mm 4 m/s 766 mmHg 53%
    11:00 +20°C° 0 mm 4 m/s 765 mmHg 54%
    12:00 +20°C° 0 mm 5 m/s 765 mmHg 54%
    13:00 +21°C° 0 mm 5 m/s 764 mmHg 55%
    14:00 +20°C° 0 mm 5 m/s 764 mmHg 56%
    15:00 +20°C° 0 mm 5 m/s 763 mmHg 57%
    16:00 +20°C° 0 mm 5 m/s 763 mmHg 59%
    17:00 +20°C° 0 mm 5 m/s 763 mmHg 63%
    18:00 +19°C° 0 mm 4 m/s 763 mmHg 67%
    19:00 +18°C° 0 mm 4 m/s 763 mmHg 72%
    20:00 +18°C° 0 mm 4 m/s 764 mmHg 73%
    21:00 +18°C° 0 mm 3 m/s 764 mmHg 74%
    22:00 +17°C° 0 mm 3 m/s 764 mmHg 75%
    23:00 +17°C° 0 mm 3 m/s 764 mmHg 76%

    1 Februarie, Sâmbătă

    Timp Temperatura Precipitaţii Vânt Presiune Umiditate
    00:00 +17°C° 0 mm 2 m/s 763 mmHg 77%
    01:00 +17°C° 0 mm 2 m/s 763 mmHg 78%
    02:00 +18°C° 0 mm 2 m/s 763 mmHg 79%
    03:00 +18°C° 0 mm 3 m/s 763 mmHg 79%
    04:00 +18°C° 0 mm 3 m/s 762 mmHg 80%
    05:00 +18°C° 0 mm 3 m/s 762 mmHg 81%
    06:00 +18°C° 0 mm 3 m/s 763 mmHg 83%
    07:00 +18°C° 0 mm 3 m/s 763 mmHg 84%
    08:00 +19°C° 0 mm 3 m/s 763 mmHg 83%
    09:00 +19°C° 0 mm 4 m/s 764 mmHg 82%
    10:00 +20°C° 0 mm 4 m/s 764 mmHg 81%
    11:00 +20°C° 0.2 mm 4 m/s 764 mmHg 83%
    12:00 +20°C° 0.2 mm 4 m/s 763 mmHg 85%
    13:00 +20°C° 0.2 mm 4 m/s 763 mmHg 87%
    14:00 +20°C° 0.2 mm 4 m/s 762 mmHg 87%
    15:00 +20°C° 0.2 mm 4 m/s 762 mmHg 86%
    16:00 +20°C° 0.2 mm 4 m/s 761 mmHg 86%
    17:00 +20°C° 0 mm 3 m/s 761 mmHg 86%
    18:00 +20°C° 0 mm 3 m/s 762 mmHg 87%
    19:00 +20°C° 0 mm 3 m/s 762 mmHg 87%
    20:00 +20°C° 0 mm 3 m/s 762 mmHg 87%
    21:00 +20°C° 0 mm 3 m/s 762 mmHg 88%
    22:00 +20°C° 0 mm 3 m/s 763 mmHg 88%
    23:00 +20°C° 0.1 mm 3 m/s 762 mmHg 88%

    2 Februarie, Duminică

    Timp Temperatura Precipitaţii Vânt Presiune Umiditate
    00:00 +20°C° 0.1 mm 2 m/s 762 mmHg 88%
    01:00 +20°C° 0.1 mm 2 m/s 762 mmHg 88%
    02:00 +20°C° 0 mm 2 m/s 761 mmHg 88%
    03:00 +20°C° 0 mm 2 m/s 761 mmHg 88%
    04:00 +20°C° 0 mm 2 m/s 761 mmHg 88%
    05:00 +20°C° 0 mm 3 m/s 761 mmHg 87%
    06:00 +20°C° 0 mm 3 m/s 761 mmHg 87%
    07:00 +20°C° 0 mm 3 m/s 762 mmHg 86%
    08:00 +20°C° 0.1 mm 3 m/s 762 mmHg 84%
    09:00 +21°C° 0.1 mm 3 m/s 763 mmHg 82%
    10:00 +22°C° 0.1 mm 3 m/s 763 mmHg 80%
    11:00 +22°C° 0.1 mm 4 m/s 762 mmHg 79%
    12:00 +22°C° 0.1 mm 4 m/s 762 mmHg 78%
    13:00 +22°C° 0.1 mm 4 m/s 761 mmHg 77%
    14:00 +22°C° 0 mm 4 m/s 761 mmHg 77%
    15:00 +22°C° 0 mm 4 m/s 760 mmHg 77%
    16:00 +22°C° 0 mm 4 m/s 760 mmHg 77%
    17:00 +22°C° 0 mm 4 m/s 760 mmHg 80%
    18:00 +21°C° 0 mm 3 m/s 760 mmHg 82%
    19:00 +21°C° 0 mm 3 m/s 760 mmHg 84%
    20:00 +21°C° 0 mm 2 m/s 761 mmHg 85%
    21:00 +20°C° 0 mm 2 m/s 761 mmHg 86%
    22:00 +20°C° 0 mm 2 m/s 761 mmHg 87%
    23:00 +20°C° 0 mm 2 m/s 761 mmHg 86%
    Arată mai mult